Time,TemperatureF,DewpointF,PressureIn,WindDirection,WindDirectionDegrees,WindSpeedMPH,WindSpeedGustMPH,Humidity,HourlyPrecipIn,Conditions,Clouds,dailyrainin,SoftwareType,DateUTC
2013-01-29 00:04:00,25.0,22.0,29.93,North,355,0.0,2.0,89,0.00,,,0.00,,2013-01-29 05:04:00,
2013-01-29 00:12:00,25.0,22.0,29.93,North,355,0.0,2.0,89,0.00,,,0.00,,2013-01-29 05:12:00,
2013-01-29 00:22:00,25.0,22.0,29.94,NNW,341,1.0,5.0,89,0.00,,,0.00,,2013-01-29 05:22:00,
2013-01-29 00:32:00,25.0,22.0,29.94,North,5,1.0,3.0,89,0.00,,,0.00,,2013-01-29 05:32:00,
2013-01-29 00:42:00,25.0,22.0,29.94,North,5,1.0,3.0,89,0.00,,,0.00,,2013-01-29 05:42:00,
2013-01-29 00:52:00,25.0,22.0,29.94,NNW,334,0.0,3.0,89,0.00,,,0.00,,2013-01-29 05:52:00,
2013-01-29 01:02:00,25.0,22.0,29.94,NNW,338,1.0,3.0,90,0.00,,,0.00,,2013-01-29 06:02:00,
2013-01-29 01:11:00,25.0,22.0,29.94,NNW,338,1.0,3.0,90,0.00,,,0.00,,2013-01-29 06:11:00,
2013-01-29 01:21:00,25.0,22.0,29.94,NNW,340,1.0,3.0,89,0.00,,,0.00,,2013-01-29 06:21:00,
2013-01-29 01:32:00,25.0,22.0,29.95,NNW,341,2.0,4.0,90,0.00,,,0.00,,2013-01-29 06:32:00,
2013-01-29 01:42:00,25.0,22.0,29.95,NNW,341,2.0,4.0,90,0.00,,,0.00,,2013-01-29 06:42:00,
2013-01-29 01:52:00,25.0,22.0,29.95,NNW,340,0.0,4.0,89,0.00,,,0.00,,2013-01-29 06:52:00,
2013-01-29 02:02:00,26.0,23.0,29.95,North,360,2.0,4.0,90,0.00,,,0.00,,2013-01-29 07:02:00,
2013-01-29 02:11:00,26.0,23.0,29.95,North,360,2.0,4.0,90,0.00,,,0.00,,2013-01-29 07:11:00,
2013-01-29 02:21:00,25.0,22.0,29.96,North,351,1.0,3.0,89,0.00,,,0.00,,2013-01-29 07:21:00,
2013-01-29 02:32:00,25.0,22.0,29.96,NNW,348,2.0,4.0,89,0.00,,,0.00,,2013-01-29 07:32:00,
2013-01-29 02:42:00,25.0,22.0,29.96,NNW,348,2.0,4.0,89,0.00,,,0.00,,2013-01-29 07:42:00,
2013-01-29 02:52:00,25.0,22.0,29.96,North,351,1.0,4.0,89,0.00,,,0.00,,2013-01-29 07:52:00,
2013-01-29 03:02:00,25.0,22.0,29.97,North,349,1.0,4.0,89,0.00,,,0.00,,2013-01-29 08:02:00,
2013-01-29 03:11:00,25.0,22.0,29.97,North,349,1.0,4.0,89,0.00,,,0.00,,2013-01-29 08:11:00,
2013-01-29 03:21:00,25.0,22.0,29.97,NNE,13,1.0,4.0,89,0.00,,,0.00,,2013-01-29 08:21:00,
2013-01-29 03:32:00,25.0,22.0,29.97,NNW,346,1.0,3.0,89,0.00,,,0.00,,2013-01-29 08:32:00,
2013-01-29 03:42:00,25.0,22.0,29.97,NNW,346,1.0,3.0,89,0.00,,,0.00,,2013-01-29 08:42:00,
2013-01-29 03:52:00,25.0,22.0,29.98,NNW,347,1.0,4.0,89,0.00,,,0.00,,2013-01-29 08:52:00,
2013-01-29 04:02:00,25.0,22.0,29.98,NNW,344,0.0,3.0,89,0.00,,,0.00,,2013-01-29 09:02:00,
2013-01-29 04:11:00,25.0,22.0,29.98,NNW,344,0.0,3.0,89,0.00,,,0.00,,2013-01-29 09:11:00,
2013-01-29 04:21:00,25.0,22.0,29.97,NNW,327,0.0,3.0,89,0.00,,,0.00,,2013-01-29 09:21:00,
2013-01-29 04:32:00,25.0,22.0,29.98,North,360,1.0,3.0,89,0.00,,,0.00,,2013-01-29 09:32:00,
2013-01-29 04:42:00,25.0,22.0,29.98,North,360,1.0,3.0,89,0.00,,,0.00,,2013-01-29 09:42:00,
2013-01-29 04:51:00,25.0,22.0,29.98,NNW,340,1.0,4.0,89,0.00,,,0.00,,2013-01-29 09:51:00,
2013-01-29 05:02:00,25.0,22.0,29.99,North,9,1.0,4.0,88,0.00,,,0.00,,2013-01-29 10:02:00,
2013-01-29 05:11:00,25.0,22.0,29.99,North,9,1.0,4.0,88,0.00,,,0.00,,2013-01-29 10:11:00,
2013-01-29 05:21:00,25.0,22.0,29.99,North,9,1.0,4.0,88,0.00,,,0.00,,2013-01-29 10:21:00,
2013-01-29 05:32:00,25.0,22.0,29.99,NNW,340,1.0,4.0,88,0.00,,,0.00,,2013-01-29 10:32:00,
2013-01-29 05:42:00,25.0,22.0,29.99,NNW,340,1.0,4.0,88,0.00,,,0.00,,2013-01-29 10:42:00,
2013-01-29 05:52:00,25.0,22.0,30.00,NNW,331,0.0,3.0,87,0.00,,,0.00,,2013-01-29 10:52:00,
2013-01-29 06:02:00,25.0,22.0,30.01,NNW,347,1.0,3.0,87,0.00,,,0.00,,2013-01-29 11:02:00,
2013-01-29 06:11:00,25.0,22.0,30.01,NNW,347,1.0,3.0,87,0.00,,,0.00,,2013-01-29 11:11:00,
2013-01-29 06:22:00,25.0,22.0,30.01,North,350,0.0,3.0,88,0.00,,,0.00,,2013-01-29 11:22:00,
2013-01-29 06:32:00,25.0,22.0,30.00,North,355,0.0,2.0,88,0.00,,,0.00,,2013-01-29 11:32:00,
2013-01-29 06:42:00,25.0,22.0,30.00,North,355,0.0,2.0,88,0.00,,,0.00,,2013-01-29 11:42:00,
2013-01-29 06:52:00,24.0,21.0,30.01,North,355,0.0,0.0,88,0.00,,,0.00,,2013-01-29 11:52:00,
2013-01-29 07:03:00,24.0,21.0,30.02,North,355,0.0,0.0,88,0.00,,,0.00,,2013-01-29 12:03:00,
2013-01-29 07:12:00,24.0,21.0,30.02,North,355,0.0,0.0,88,0.00,,,0.00,,2013-01-29 12:12:00,
2013-01-29 07:22:00,24.0,21.0,30.03,North,355,0.0,0.0,88,0.00,,,0.00,,2013-01-29 12:22:00,
2013-01-29 07:33:00,24.0,21.0,30.03,North,360,0.0,2.0,89,0.00,,,0.00,,2013-01-29 12:33:00,
2013-01-29 07:43:00,24.0,21.0,30.03,North,360,0.0,2.0,89,0.00,,,0.00,,2013-01-29 12:43:00,
2013-01-29 07:52:00,24.0,21.0,30.05,North,360,0.0,1.0,89,0.00,,,0.00,,2013-01-29 12:52:00,
2013-01-29 08:02:00,24.0,21.0,30.05,North,360,0.0,1.0,89,0.00,,,0.00,,2013-01-29 13:02:00,
2013-01-29 08:12:00,24.0,21.0,30.05,North,360,0.0,1.0,89,0.00,,,0.00,,2013-01-29 13:12:00,
2013-01-29 08:23:00,25.0,22.0,30.06,North,360,0.0,2.0,88,0.00,,,0.00,,2013-01-29 13:23:00,
2013-01-29 08:32:00,25.0,22.0,30.07,NNW,342,1.0,3.0,87,0.00,,,0.00,,2013-01-29 13:32:00,
2013-01-29 08:43:00,25.0,22.0,30.07,NNW,342,1.0,3.0,87,0.00,,,0.00,,2013-01-29 13:43:00,
2013-01-29 08:52:00,25.0,22.0,30.07,NNW,343,1.0,3.0,87,0.00,,,0.00,,2013-01-29 13:52:00,
2013-01-29 09:02:00,26.0,22.0,30.07,North,11,1.0,2.0,85,0.00,,,0.00,,2013-01-29 14:02:00,
2013-01-29 09:12:00,27.0,23.0,30.08,NNE,15,0.0,2.0,84,0.00,,,0.00,,2013-01-29 14:12:00,
2013-01-29 09:22:00,27.0,23.0,30.08,NNE,15,0.0,2.0,84,0.00,,,0.00,,2013-01-29 14:22:00,
2013-01-29 09:33:00,27.0,23.0,30.08,North,360,0.0,2.0,84,0.00,,,0.00,,2013-01-29 14:33:00,
2013-01-29 09:43:00,27.0,23.0,30.08,North,360,0.0,2.0,84,0.00,,,0.00,,2013-01-29 14:43:00,
2013-01-29 09:52:00,28.0,23.0,30.08,North,5,0.0,2.0,82,0.00,,,0.00,,2013-01-29 14:52:00,
2013-01-29 10:03:00,28.0,23.0,30.08,NNE,19,2.0,4.0,81,0.00,,,0.00,,2013-01-29 15:03:00,
2013-01-29 10:12:00,28.0,23.0,30.08,NNE,19,2.0,4.0,81,0.00,,,0.00,,2013-01-29 15:12:00,
2013-01-29 10:22:00,29.0,23.0,30.08,North,5,3.0,6.0,79,0.00,,,0.00,,2013-01-29 15:22:00,
2013-01-29 10:33:00,29.0,24.0,30.09,WNW,296,0.0,4.0,80,0.00,,,0.00,,2013-01-29 15:33:00,
2013-01-29 10:43:00,29.0,24.0,30.09,WNW,296,0.0,4.0,80,0.00,,,0.00,,2013-01-29 15:43:00,
2013-01-29 10:53:00,30.0,24.0,30.09,NNW,348,1.0,3.0,79,0.00,,,0.00,,2013-01-29 15:53:00,
2013-01-29 11:03:00,31.0,25.0,30.10,NNW,331,1.0,4.0,78,0.00,,,0.00,,2013-01-29 16:03:00,
2013-01-29 11:12:00,31.0,25.0,30.10,NNW,331,1.0,4.0,78,0.00,,,0.00,,2013-01-29 16:12:00,
2013-01-29 11:23:00,32.0,26.0,30.10,NNW,347,2.0,5.0,77,0.00,,,0.00,,2013-01-29 16:23:00,
2013-01-29 11:33:00,33.0,26.0,30.10,North,360,4.0,7.0,76,0.00,,,0.00,,2013-01-29 16:33:00,
2013-01-29 11:43:00,33.0,26.0,30.10,North,360,4.0,7.0,76,0.00,,,0.00,,2013-01-29 16:43:00,
2013-01-29 11:52:00,33.0,26.0,30.09,NNW,335,2.0,7.0,75,0.00,,,0.00,,2013-01-29 16:52:00,
2013-01-29 12:03:00,33.0,26.0,30.09,North,355,0.0,3.0,76,0.00,,,0.00,,2013-01-29 17:03:00,
2013-01-29 12:12:00,33.0,26.0,30.09,North,355,0.0,3.0,76,0.00,,,0.00,,2013-01-29 17:12:00,
2013-01-29 12:22:00,34.0,27.0,30.08,North,5,0.0,4.0,75,0.00,,,0.00,,2013-01-29 17:22:00,
2013-01-29 12:33:00,35.0,28.0,30.07,NNW,343,2.0,5.0,75,0.00,,,0.00,,2013-01-29 17:33:00,
2013-01-29 12:42:00,35.0,28.0,30.07,NNW,343,2.0,5.0,75,0.00,,,0.00,,2013-01-29 17:42:00,
2013-01-29 12:52:00,36.0,29.0,30.08,NNW,340,0.0,2.0,75,0.00,,,0.00,,2013-01-29 17:52:00,
2013-01-29 13:04:00,36.0,29.0,30.08,SSW,200,0.0,3.0,74,0.00,,,0.00,,2013-01-29 18:04:00,
2013-01-29 13:12:00,36.0,29.0,30.08,SSW,200,0.0,3.0,74,0.00,,,0.00,,2013-01-29 18:12:00,
2013-01-29 13:22:00,36.0,29.0,30.07,SW,236,0.0,3.0,76,0.00,,,0.00,,2013-01-29 18:22:00,
2013-01-29 13:33:00,36.0,29.0,30.07,SW,236,0.0,3.0,76,0.00,,,0.00,,2013-01-29 18:33:00,
2013-01-29 13:42:00,36.0,29.0,30.07,SW,236,0.0,3.0,76,0.00,,,0.00,,2013-01-29 18:42:00,
2013-01-29 13:52:00,36.0,29.0,30.06,North,360,2.0,4.0,75,0.03,,,0.03,,2013-01-29 18:52:00,
2013-01-29 14:03:00,36.0,29.0,30.06,NNE,24,1.0,3.0,76,0.04,,,0.04,,2013-01-29 19:03:00,
2013-01-29 14:12:00,36.0,29.0,30.06,NNE,24,1.0,3.0,76,0.04,,,0.04,,2013-01-29 19:12:00,
2013-01-29 14:23:00,36.0,29.0,30.06,NNE,26,0.0,2.0,76,0.06,,,0.06,,2013-01-29 19:23:00,
2013-01-29 14:33:00,35.0,28.0,30.06,WSW,242,0.0,3.0,76,0.05,,,0.06,,2013-01-29 19:33:00,
2013-01-29 14:42:00,35.0,28.0,30.06,WSW,242,0.0,3.0,76,0.05,,,0.06,,2013-01-29 19:42:00,
2013-01-29 14:52:00,35.0,28.0,30.05,SW,223,0.0,3.0,76,0.03,,,0.06,,2013-01-29 19:52:00,
2013-01-29 15:03:00,35.0,29.0,30.06,SSE,148,1.0,2.0,77,0.02,,,0.06,,2013-01-29 20:03:00,
2013-01-29 15:13:00,35.0,29.0,30.06,SSE,148,1.0,2.0,77,0.02,,,0.06,,2013-01-29 20:13:00,
2013-01-29 15:22:00,35.0,29.0,30.07,SSE,163,0.0,3.0,77,0.01,,,0.07,,2013-01-29 20:22:00,
2013-01-29 15:33:00,35.0,29.0,30.07,SW,215,0.0,4.0,79,0.01,,,0.07,,2013-01-29 20:33:00,
2013-01-29 15:42:00,35.0,29.0,30.07,SW,215,0.0,4.0,79,0.01,,,0.07,,2013-01-29 20:42:00,
2013-01-29 15:53:00,35.0,29.0,30.07,West,269,2.0,4.0,78,0.02,,,0.08,,2013-01-29 20:53:00,
2013-01-29 16:03:00,35.0,29.0,30.07,ESE,113,0.0,2.0,80,0.02,,,0.08,,2013-01-29 21:03:00,
2013-01-29 16:12:00,35.0,29.0,30.07,ESE,113,0.0,2.0,80,0.02,,,0.08,,2013-01-29 21:12:00,
2013-01-29 16:22:00,35.0,29.0,30.06,ESE,121,0.0,0.0,80,0.01,,,0.08,,2013-01-29 21:22:00,
2013-01-29 16:33:00,35.0,30.0,30.06,SSE,165,0.0,2.0,81,0.02,,,0.09,,2013-01-29 21:33:00,
2013-01-29 16:42:00,35.0,30.0,30.06,SSE,165,0.0,2.0,81,0.02,,,0.09,,2013-01-29 21:42:00,
2013-01-29 16:52:00,34.0,29.0,30.07,SSE,149,0.0,4.0,82,0.01,,,0.09,,2013-01-29 21:52:00,
2013-01-29 17:03:00,34.0,29.0,30.08,SSW,202,1.0,2.0,83,0.01,,,0.09,,2013-01-29 22:03:00,
2013-01-29 17:12:00,34.0,29.0,30.08,SSW,202,1.0,2.0,83,0.01,,,0.09,,2013-01-29 22:12:00,
2013-01-29 17:22:00,34.0,30.0,30.06,SE,143,0.0,0.0,85,0.01,,,0.09,,2013-01-29 22:22:00,
2013-01-29 17:33:00,33.0,29.0,30.07,SE,146,0.0,0.0,85,0.00,,,0.09,,2013-01-29 22:33:00,
2013-01-29 17:42:00,33.0,29.0,30.07,SE,146,0.0,0.0,85,0.00,,,0.09,,2013-01-29 22:42:00,
2013-01-29 17:53:00,33.0,29.0,30.07,SE,146,0.0,0.0,86,0.00,,,0.09,,2013-01-29 22:53:00,
2013-01-29 18:02:00,33.0,30.0,30.08,SE,146,0.0,0.0,87,0.00,,,0.09,,2013-01-29 23:02:00,
2013-01-29 18:12:00,33.0,30.0,30.08,SE,146,0.0,0.0,87,0.00,,,0.09,,2013-01-29 23:12:00,
2013-01-29 18:23:00,33.0,30.0,30.07,SE,146,0.0,0.0,87,0.00,,,0.09,,2013-01-29 23:23:00,
2013-01-29 18:33:00,33.0,30.0,30.09,SE,146,0.0,0.0,87,0.00,,,0.09,,2013-01-29 23:33:00,
2013-01-29 18:42:00,33.0,30.0,30.09,SE,146,0.0,0.0,87,0.00,,,0.09,,2013-01-29 23:42:00,
2013-01-29 18:52:00,33.0,30.0,30.08,SE,146,0.0,0.0,88,0.00,,,0.09,,2013-01-29 23:52:00,
2013-01-29 19:03:00,33.0,30.0,30.09,ESE,117,0.0,0.0,89,0.01,,,0.10,,2013-01-30 00:03:00,
2013-01-29 19:12:00,33.0,30.0,30.09,ESE,117,0.0,0.0,89,0.01,,,0.10,,2013-01-30 00:12:00,
2013-01-29 19:22:00,33.0,30.0,30.07,ESE,117,0.0,0.0,88,0.01,,,0.10,,2013-01-30 00:22:00,
2013-01-29 19:32:00,33.0,30.0,30.07,ENE,65,0.0,2.0,89,0.01,,,0.10,,2013-01-30 00:32:00,
2013-01-29 19:43:00,33.0,30.0,30.07,ENE,65,0.0,2.0,89,0.01,,,0.10,,2013-01-30 00:43:00,
2013-01-29 19:52:00,33.0,30.0,30.08,ENE,65,0.0,0.0,89,0.01,,,0.10,,2013-01-30 00:52:00,
2013-01-29 20:02:00,33.0,30.0,30.07,ENE,65,0.0,0.0,89,0.00,,,0.10,,2013-01-30 01:02:00,
2013-01-29 20:12:00,33.0,30.0,30.07,ENE,65,0.0,0.0,89,0.00,,,0.10,,2013-01-30 01:12:00,
2013-01-29 20:22:00,33.0,30.0,30.08,ENE,65,0.0,1.0,90,0.00,,,0.10,,2013-01-30 01:22:00,
2013-01-29 20:32:00,32.0,29.0,30.08,ENE,65,0.0,0.0,90,0.00,,,0.10,,2013-01-30 01:32:00,
2013-01-29 20:42:00,32.0,29.0,30.08,ENE,65,0.0,0.0,90,0.00,,,0.10,,2013-01-30 01:42:00,
2013-01-29 20:52:00,32.0,29.0,30.08,ENE,65,0.0,0.0,90,0.00,,,0.10,,2013-01-30 01:52:00,
2013-01-29 21:02:00,32.0,29.0,30.08,ENE,65,0.0,0.0,90,0.00,,,0.10,,2013-01-30 02:02:00,
2013-01-29 21:12:00,32.0,29.0,30.08,ENE,65,0.0,0.0,90,0.00,,,0.10,,2013-01-30 02:12:00,
2013-01-29 21:22:00,32.0,30.0,30.08,ENE,65,0.0,0.0,91,0.00,,,0.10,,2013-01-30 02:22:00,
2013-01-29 21:33:00,32.0,30.0,30.07,ENE,65,0.0,0.0,92,0.00,,,0.10,,2013-01-30 02:33:00,
2013-01-29 21:42:00,32.0,30.0,30.07,ENE,65,0.0,0.0,92,0.00,,,0.10,,2013-01-30 02:42:00,
2013-01-29 21:52:00,32.0,30.0,30.07,ESE,116,0.0,1.0,92,0.00,,,0.10,,2013-01-30 02:52:00,
2013-01-29 22:03:00,32.0,30.0,30.07,ESE,116,0.0,0.0,93,0.00,,,0.10,,2013-01-30 03:03:00,
2013-01-29 22:12:00,32.0,30.0,30.07,ESE,116,0.0,0.0,93,0.00,,,0.10,,2013-01-30 03:12:00,
2013-01-29 22:22:00,32.0,30.0,30.05,SSW,206,1.0,2.0,93,0.00,,,0.10,,2013-01-30 03:22:00,
2013-01-29 22:32:00,33.0,31.0,30.05,West,267,0.0,1.0,93,0.00,,,0.10,,2013-01-30 03:32:00,
2013-01-29 22:42:00,33.0,31.0,30.05,West,267,0.0,1.0,93,0.00,,,0.10,,2013-01-30 03:42:00,
2013-01-29 22:52:00,33.0,31.0,30.05,SSW,210,0.0,2.0,94,0.00,,,0.10,,2013-01-30 03:52:00,
2013-01-29 23:02:00,33.0,31.0,30.06,SSW,210,0.0,1.0,94,0.00,,,0.10,,2013-01-30 04:02:00,
2013-01-29 23:12:00,33.0,31.0,30.06,SSW,210,0.0,1.0,94,0.00,,,0.10,,2013-01-30 04:12:00,
2013-01-29 23:22:00,33.0,31.0,30.05,SSW,210,0.0,0.0,94,0.00,,,0.10,,2013-01-30 04:22:00,
2013-01-29 23:32:00,33.0,31.0,30.04,SSW,210,0.0,0.0,94,0.01,,,0.11,,2013-01-30 04:32:00,
2013-01-29 23:42:00,33.0,31.0,30.04,SSW,210,0.0,0.0,94,0.01,,,0.11,,2013-01-30 04:42:00,
2013-01-29 23:52:00,33.0,31.0,30.05,SSW,211,0.0,0.0,94,0.01,,,0.11,,2013-01-30 04:52:00,